[[{"header":{"parameterUnit":"m.s-1","parameterCategory":1,"la1":30.2991,"la2":30.254,"lo1":-89.0895,"lo2":-89.0444,"dy":0.0017,"dx":0.0017,"nx":28,"ny":28,"refTime":"2023-09-06T21:00:00:Z","depth":0,"parameterNumber":2,"parameterNumberName":"U-component_of_WINDS"},"data":[0,0,0,0,0,0,0,0,0,0,0,0,0,0,0,0,0,0,0,0,0,0,0,0,0,0,0,0,0,0,0,0,0,0,0,0,0,0,0,0,0,0,0,0,0,0,0,0,0,0,0,0,0,0,0,0,0,0,2.2158,2.2158,0,2.2229,2.223,2.2231,2.2222,2.2221,2.222,2.2219,2.229,2.2293,2.2296,0,0,0,0,0,0,0,0,0,0,0,0,0,2.2008,2.2011,2.2157,2.2158,2.2159,2.2229,2.223,2.2231,2.2222,2.2221,2.222,2.2218,2.2289,2.2292,2.2296,0,0,0,0,0,0,0,0,0,0,0,0,0,2.2076,2.2012,2.2157,2.2163,2.2165,2.2229,2.223,2.2232,2.2223,2.2221,2.2219,2.2218,2.2288,2.2292,2.2296,2.2358,0,0,2.231,2.2312,0,0,0,0,0,0,0,0,2.2072,2.2081,2.2162,2.2163,2.2165,2.2215,2.2204,2.2274,2.2223,2.2201,2.2219,2.2217,2.2266,2.2272,2.2289,2.2362,2.2365,2.231,2.2313,2.2315,2.2316,0,0,0,0,0,0,0,2.2068,2.2078,2.2186,2.2163,2.2165,2.2161,2.2169,2.2217,2.2242,2.2202,2.2202,2.2211,2.2267,2.2285,2.2291,2.2366,2.231,2.2314,2.2317,2.2319,2.2489,2.2491,0,0,0,0,0,0,2.2062,2.2075,2.2184,2.2188,2.2113,2.2165,2.2174,2.2201,2.2242,2.2246,2.2212,2.221,2.2278,2.2286,2.2293,2.2366,2.2315,2.2319,2.2322,2.2488,2.249,2.2492,0,0,0,0,0,0,2.2059,2.2072,2.2181,2.2131,2.2145,2.217,2.22,2.2203,2.2222,2.2249,2.2253,2.2227,2.2277,2.2287,2.2342,2.2369,2.2321,2.2325,2.2485,2.2488,2.2491,2.2514,0,0,0,0,0,0,2.2054,2.2071,2.2095,2.2132,2.2148,2.2229,2.2202,2.2206,2.223,2.2228,2.2264,2.2268,2.2277,2.2335,2.2346,2.2374,2.2329,2.2483,2.2487,2.249,2.2511,2.2518,2.2523,0,0,0,0,0,2.2049,2.2099,2.2097,2.211,2.2179,2.2231,2.2239,2.2249,2.2232,2.2256,2.2273,2.2267,2.2365,2.2341,2.2353,2.2383,2.2481,2.2486,2.249,2.2509,2.2516,2.2523,0,0,0,0,0,0,2.2065,2.2104,2.2102,2.2166,2.2195,2.2229,2.226,2.2258,2.2292,2.2288,2.2298,2.2306,2.2361,2.2378,2.2351,2.2444,2.242,2.2427,2.243,2.2438,2.2444,2.2438,2.2332,0,0,0,0,0,2.2076,2.2115,2.2147,2.22,2.2215,2.2235,2.2258,2.2263,2.2293,2.2305,2.2327,2.2356,2.2392,2.2417,2.2452,2.2514,2.252,2.2541,2.2546,2.2551,2.2556,2.2587,2.2596,2.2506,2.2506,2.2506,0,0,2.2098,2.2125,2.2149,2.2204,2.2227,2.2266,2.2246,2.2288,2.2317,2.2312,2.2364,2.2381,2.2413,2.2471,2.2498,2.2487,2.2583,2.2557,2.256,2.2563,2.2593,2.2601,2.2609,2.2509,2.2508,2.2508,0,0,2.2159,2.2185,2.223,2.2254,2.2289,2.2302,2.2313,2.2348,2.2359,2.2412,2.2408,2.2441,2.2506,2.2528,2.2548,2.2616,2.261,2.2628,2.2658,2.2688,2.2695,2.2701,2.2723,2.2731,2.2633,2.2633,2.2633,0,2.2182,2.2242,2.2253,2.2296,2.2319,2.2317,2.2362,2.2384,2.2429,2.2445,2.2432,2.2511,2.2533,2.2595,2.2611,2.2629,2.2639,2.2623,2.2693,2.27,2.2706,2.2726,2.2735,2.2635,2.2635,2.2635,2.2634,0,2.2268,2.2309,2.2342,2.2385,2.2412,2.2456,2.2472,2.2498,2.25,2.2514,2.2566,2.2593,2.2633,2.2648,2.2651,2.271,2.2701,2.2691,2.2668,2.2716,2.2735,2.2743,2.2637,2.2637,2.2636,2.2636,0,0,2.2339,2.2389,2.24,2.2419,2.2458,2.2489,2.2532,2.2571,2.2592,2.2623,2.2657,2.2711,2.2701,2.2724,2.273,2.2757,2.2805,2.2743,2.2743,2.2751,2.2868,2.2874,2.2883,2.2803,2.2804,2.2806,2.2864,0,2.2402,2.2478,2.2489,2.2556,2.2592,2.2591,2.2627,2.2654,2.2668,2.27,2.2715,2.2752,2.2738,2.2751,2.2778,2.2794,2.2828,2.279,2.2832,2.2834,2.2822,2.2893,2.29,2.2954,2.2872,2.2874,2.2875,0,2.2485,2.2518,2.2589,2.262,2.2636,2.2669,2.2705,2.2737,2.2766,2.2774,2.2799,2.2801,2.2843,2.2819,2.2876,2.285,2.2868,2.2878,2.288,2.2883,2.2855,2.2895,2.2972,2.2979,2.2887,2.2886,2.2885,0,2.2526,2.2589,2.2639,2.2655,2.2695,2.2717,2.2734,2.2763,2.2785,2.2816,2.283,2.2866,2.2885,2.2912,2.2922,2.2905,2.2978,2.2956,2.2983,2.2983,2.2997,2.2996,2.3075,2.3013,2.3013,2.3013,2.3013,0,2.2594,2.2636,2.2658,2.2688,2.2735,2.2746,2.2792,2.2808,2.2833,2.2864,2.2866,2.2895,2.2909,2.294,2.2949,2.2993,2.3002,2.3008,2.3009,2.3007,2.3006,2.3017,2.3012,2.3015,2.3015,2.3014,2.3014,0,2.2647,2.2664,2.2717,2.275,2.2759,2.2792,2.2819,2.2847,2.2861,2.2901,2.2911,2.2932,2.2968,2.2982,2.3027,2.3033,2.3083,2.3083,2.3073,2.3073,2.3099,2.3095,2.3187,2.3198,2.3131,2.3131,2.3132,0,2.2688,2.272,2.2756,2.2778,2.2796,2.2831,2.2854,2.2866,2.289,2.2925,2.2948,2.2985,2.3015,2.3074,2.3092,2.3125,2.3124,2.3154,2.3129,2.3124,2.3121,2.3118,2.312,2.3158,2.3158,2.3159,2.3159,0,2.2757,2.2763,2.2797,2.2832,2.2859,2.2888,2.2916,2.2933,2.2949,2.2975,2.3013,2.3036,2.3082,2.3117,2.3152,2.3168,2.3165,2.3167,2.3175,2.3171,2.3163,2.3165,2.3083,2.3165,2.3164,2.3164,2.3163,2.3163,2.2803,2.2831,2.286,2.2897,2.2919,2.2944,2.2972,2.2989,2.3021,2.3059,2.3064,2.3104,2.3131,2.3177,2.3195,2.3225,2.3217,2.3229,2.3231,2.3233,2.3234,2.3161,2.3232,2.3231,2.3231,2.3231,2.3231,0,2.287,2.2889,2.2922,2.2961,2.2989,2.2986,2.3016,2.3039,2.3074,2.31,2.3129,2.3171,2.3206,2.3227,2.326,2.328,2.328,2.3289,2.3286,2.3289,2.3241,2.3229,2.3288,2.3288,2.3288,2.3288,2.3288,2.3288,2.2908,2.2954,2.2964,2.302,2.3038,2.3077,2.3094,2.3117,2.3138,2.3185,2.3213,2.3227,2.325,2.3286,2.3316,2.3321,2.3333,2.3342,2.3345,2.3299,2.3293,2.3287,2.3277,2.3345,2.3345,2.3391,2.3392,2.3392]},{"header":{"parameterUnit":"m.s-1","parameterCategory":1,"la1":30.2991,"la2":30.254,"lo1":-89.0895,"lo2":-89.0444,"dy":0.0017,"dx":0.0017,"nx":28,"ny":28,"refTime":"2023-09-06T21:00:00:Z","depth":0,"parameterNumber":3,"parameterNumberName":"V-component_of_WINDS"},"data":[0,0,0,0,0,0,0,0,0,0,0,0,0,0,0,0,0,0,0,0,0,0,0,0,0,0,0,0,0,0,0,0,0,0,0,0,0,0,0,0,0,0,0,0,0,0,0,0,0,0,0,0,0,0,0,0,0,0,2.1244,2.1244,0,2.1263,2.1263,2.1263,2.1237,2.1236,2.1235,2.1234,2.1252,2.1253,2.1254,0,0,0,0,0,0,0,0,0,0,0,0,0,2.1181,2.1182,2.1244,2.1244,2.1244,2.1263,2.1263,2.1263,2.1237,2.1236,2.1235,2.1234,2.1251,2.1253,2.1255,0,0,0,0,0,0,0,0,0,0,0,0,0,2.1205,2.1183,2.1244,2.1233,2.1233,2.1263,2.1263,2.1263,2.1237,2.1236,2.1235,2.1233,2.1251,2.1253,2.1255,2.1295,0,0,2.1261,2.1262,0,0,0,0,0,0,0,0,2.1204,2.1207,2.1235,2.1234,2.1233,2.1246,2.1247,2.1274,2.1238,2.1236,2.1234,2.1233,2.1251,2.1253,2.1259,2.1296,2.1297,2.1261,2.1262,2.1263,2.1264,0,0,0,0,0,0,0,2.1202,2.1206,2.1251,2.1235,2.1234,2.1227,2.1229,2.1252,2.1251,2.1236,2.1234,2.1237,2.125,2.1258,2.126,2.1297,2.1261,2.1263,2.1264,2.1265,2.1366,2.1367,0,0,0,0,0,0,2.1202,2.1205,2.125,2.1252,2.1215,2.1229,2.1231,2.1243,2.125,2.125,2.1238,2.1235,2.1255,2.1257,2.126,2.1307,2.1263,2.1265,2.1266,2.1364,2.1366,2.1368,0,0,0,0,0,0,2.1201,2.1206,2.125,2.1228,2.1233,2.1232,2.1246,2.1245,2.1252,2.1252,2.1251,2.1246,2.1254,2.1257,2.1286,2.1307,2.1266,2.1268,2.1363,2.1365,2.1367,2.1401,0,0,0,0,0,0,2.1199,2.1206,2.1222,2.1229,2.1234,2.1277,2.1247,2.1246,2.1256,2.1253,2.1259,2.1259,2.1253,2.1284,2.1288,2.1309,2.1269,2.1361,2.1364,2.1366,2.1398,2.1404,2.1409,0,0,0,0,0,2.1197,2.1231,2.1223,2.1229,2.1254,2.1278,2.1281,2.1274,2.1257,2.1273,2.1273,2.1259,2.1304,2.1287,2.1292,2.1313,2.1359,2.1363,2.1366,2.1395,2.1402,2.1409,0,0,0,0,0,0,2.1226,2.1231,2.1223,2.126,2.1269,2.1273,2.1293,2.1282,2.1295,2.1292,2.1282,2.1284,2.1314,2.1317,2.1298,2.1352,2.1329,2.1333,2.1349,2.1356,2.1362,2.136,2.1271,0,0,0,0,0,2.1237,2.1257,2.126,2.1292,2.1297,2.1294,2.1304,2.1298,2.1306,2.131,2.1312,2.132,2.1335,2.1346,2.1361,2.1398,2.1398,2.1415,2.1421,2.1426,2.1429,2.1447,2.1455,2.1379,2.1379,2.1379,0,0,2.1259,2.1265,2.1278,2.1298,2.1304,2.1323,2.1297,2.1319,2.1333,2.1313,2.134,2.1342,2.135,2.1383,2.1398,2.1386,2.145,2.143,2.1433,2.1434,2.1452,2.1459,2.1465,2.1381,2.138,2.138,0,0,2.131,2.1317,2.1343,2.135,2.136,2.1357,2.1364,2.137,2.1371,2.1398,2.1383,2.1399,2.1427,2.1433,2.1439,2.1491,2.1478,2.1496,2.1525,2.1543,2.1549,2.1554,2.1571,2.1578,2.15,2.15,2.15,0,2.1336,2.1365,2.1358,2.1381,2.139,2.1373,2.1399,2.1406,2.1419,2.1425,2.1412,2.1446,2.1451,2.1484,2.1496,2.1503,2.1509,2.1495,2.1549,2.1554,2.1559,2.1575,2.1581,2.1502,2.1502,2.1502,2.1502,0,2.1396,2.1417,2.1437,2.1451,2.1462,2.1487,2.1482,2.1494,2.1487,2.1486,2.1513,2.1518,2.1533,2.154,2.1534,2.1572,2.1565,2.1551,2.1527,2.1568,2.1583,2.1589,2.1505,2.1504,2.1504,2.1503,0,0,2.1466,2.1475,2.1482,2.1488,2.1497,2.1512,2.1535,2.155,2.1559,2.1569,2.1587,2.1611,2.1598,2.1606,2.1599,2.1615,2.1654,2.1599,2.1599,2.1608,2.1695,2.1705,2.1712,2.1646,2.1647,2.1648,2.1694,0,2.1515,2.1555,2.1549,2.1587,2.1605,2.1589,2.1609,2.1616,2.1615,2.163,2.1629,2.1645,2.1627,2.1632,2.1647,2.1646,2.1671,2.1643,2.1661,2.1662,2.1658,2.172,2.1731,2.1774,2.17,2.1701,2.1702,0,2.1577,2.1589,2.163,2.1635,2.1642,2.166,2.1672,2.1687,2.1694,2.1692,2.1701,2.1691,2.1713,2.169,2.1719,2.17,2.1707,2.1708,2.1709,2.1709,2.1683,2.1721,2.1788,2.1794,2.1711,2.171,2.171,0,2.1621,2.1648,2.1675,2.1681,2.1688,2.17,2.1704,2.171,2.1719,2.1729,2.1735,2.1748,2.1755,2.1765,2.1758,2.1743,2.1788,2.1765,2.1786,2.1786,2.1795,2.1794,2.1863,2.1802,2.1802,2.1802,2.1802,0,2.1676,2.1701,2.1695,2.1712,2.1739,2.1731,2.1758,2.1759,2.1764,2.178,2.1767,2.1782,2.1774,2.1788,2.1783,2.1807,2.181,2.1809,2.1807,2.1809,2.1809,2.1812,2.1809,2.1804,2.1804,2.1803,2.1803,0,2.173,2.1727,2.1755,2.176,2.1761,2.1781,2.1784,2.1799,2.1797,2.1817,2.1821,2.1819,2.1834,2.1829,2.1846,2.1843,2.1873,2.1868,2.1871,2.1869,2.189,2.1887,2.1961,2.197,2.1906,2.1906,2.1907,0,2.1764,2.1783,2.1789,2.1799,2.1803,2.1819,2.1828,2.1821,2.1831,2.184,2.1854,2.1868,2.1879,2.1905,2.1904,2.1916,2.1911,2.1936,2.1912,2.1914,2.1909,2.1908,2.1909,2.194,2.1941,2.1941,2.1942,0,2.1825,2.1822,2.1836,2.1849,2.186,2.187,2.1879,2.1887,2.1881,2.1892,2.1908,2.1917,2.1934,2.1948,2.1959,2.1962,2.195,2.195,2.1955,2.1956,2.1957,2.1955,2.1882,2.1948,2.1947,2.1947,2.1946,2.1946,2.1869,2.1884,2.189,2.1906,2.1912,2.192,2.1933,2.1934,2.1947,2.1961,2.1956,2.1974,2.1979,2.1993,2.1997,2.201,2.2001,2.2009,2.201,2.2012,2.2014,2.1956,2.2013,2.2013,2.2012,2.2012,2.2012,0,2.1927,2.1931,2.1945,2.1957,2.1969,2.1958,2.1967,2.1977,2.1993,2.2,2.2011,2.2029,2.2042,2.2042,2.2055,2.2065,2.206,2.2069,2.2067,2.2067,2.2023,2.2016,2.2072,2.2072,2.2072,2.2072,2.2072,2.2072,2.1959,2.1984,2.1982,2.2009,2.2012,2.203,2.2035,2.2042,2.2047,2.2068,2.2079,2.2079,2.2083,2.2095,2.2107,2.2106,2.2111,2.2121,2.2118,2.2077,2.2071,2.2065,2.2059,2.2122,2.2122,2.2161,2.2162,2.2162]}]]